Tracking 33188 objects as of 10-Feb-2026
HD Live streaming from Space Station
objects crossing your sky now

STARLINK-1398

Track STARLINK-1398 now!
10-day predictions
STARLINK-1398 is classified as:


NORAD ID: 45699
Int'l Code: 2020-035AU
Perigee: 335.1 km
Apogee: 341.7 km
Inclination: 53.0 °
Period: 91.2 minutes
Semi major axis: 6709 km
RCS: Unknown
Launch date: June 4, 2020
Source: United States (US)
Launch site: AIR FORCE EASTERN TEST RANGE (AFETR)
Your satellite tracking list
Your tracking list is empty




NASA's NSSDC Master Catalog

Two Line Element Set (TLE):
1 45699U 20035AU  26041.25002314  .00255638  00000-0  13293-2 0  9992
2 45699  53.0418  78.3434 0004941   0.9845  12.4284 15.79701372  5658
Source of the keplerian elements: AFSPC